Location: Gälforsberget
(66.6500°N, 22.4167°E)
Time: 07:54:24
(UTC+00:00)

Aureole 1 Rocket - Pass Details

Date: 11 April 2026
Orbit: 373 x 1151 km, 73.9° (Epoch: 9 May)

Event Time Altitude Azimuth Distance (km) Brightness Sun altitude
Rises 20:21:52 0° 245° (WSW) 2,282 6.1 -11.2°
Reaches altitude 10° 20:23:56 10° 252° (WSW) 1,401 5.1 -11.3°
Maximum altitude 20:26:49 42° 326° (NNW) 554 3.5 -11.5°
Drops below altitude 10° 20:29:44 10° 40° (NE) 1,432 5.2 -11.6°
Sets 20:31:53 0° 48° (NE) 2,343 6.2 -11.7°
